36.52977, -87.35945

Hourly Observations for October 10, 2018

Temp ( °F °C ) Dew Point ( °F °C ) Humidity (%) Winds ( mph kmh ) Pressure ( in mb ) Visibility ( mi km ) Precip ( " mm )
12:02 am 00:02 Mostly Cloudy with Freezing Fog 30 -1.1 28 -2.2 92 92 SE 3 6 30.21 1023 0.25 0.402336 0 0
12:28 am 00:28 Clear with Mist and Fog 31 -0.6 29 -1.7 92 92 ESE 3 6 30.21 1023 1 1.609344 0 0
12:52 am 00:52 Clear with Freezing Fog 30 -1.1 28 -2.2 92 92 Calm 30.18 1022 0.5 0.804672 0 0
1:52 am 01:52 Clear with Freezing Fog 30 -1.1 28 -2.2 92 92 ESE 3 6 30.18 1022 0.5 0.804672 0 0
2:52 am 02:52 Clear with Freezing Fog 30 -1.1 28 -2.2 92 92 SE 5 7 30.18 1022 0.25 0.402336 0 0
3:52 am 03:52 Clear with Mist and Fog 29 -1.7 28 -2.2 96 96 SE 5 7 30.18 1022 1.25 2.01168 0 0
4:01 am 04:01 Clear with Mist and Fog 29 -1.7 27 -2.8 92 92 SE 5 7 30.21 1023 3 4.828032 0 0
4:52 am 04:52 Clear with Mist and Fog 29 -1.7 27 -2.8 92 92 ESE 5 7 30.18 1022 4 6.437376 0 0
5:14 am 05:14 Clear with Mist and Fog 29 -1.7 27 -2.8 92 92 ESE 3 6 30.24 1024 1.75 2.816352 0 0
5:39 am 05:39 Clear with Mist and Fog 30 -1.1 27 -2.8 88 88 ESE 5 7 30.24 1024 2.5 4.02336 0 0
5:52 am 05:52 Clear with Mist and Fog 29 -1.7 27 -2.8 92 92 E 3 6 30.21 1023 1.25 2.01168 0 0
6:17 am 06:17 Clear with Mist and Fog 30 -1.1 28 -2.2 92 92 Calm 30.24 1024 2.5 4.02336 0 0
6:32 am 06:32 Sunny with Mist and Fog 30 -1.1 28 -2.2 92 92 Calm 30.24 1024 1.5 2.414016 0 0
6:52 am 06:52 Sunny with Mist and Fog 29 -1.7 28 -2.2 96 96 ESE 3 6 30.21 1023 1 1.609344 0 0
7:08 am 07:08 Sunny with Mist and Fog 30 -1.1 29 -1.7 96 96 ESE 5 7 30.24 1024 2 3.218688 0 0
7:27 am 07:27 Sunny with Mist and Fog 32 0 30 -1.1 92 92 ESE 3 6 30.27 1025 3 4.828032 0 0
7:52 am 07:52 Sunny with Mist and Fog 34 1.1 32 0 92 92 E 3 6 30.24 1024 4 6.437376 0 0
8:52 am 08:52 Sunny 42 5.6 37 2.8 82 82 SE 5 7 30.24 1024 9 14.484096 0 0
9:52 am 09:52 Sunny 49 9.4 38 3.3 66 66 SE 5 7 30.24 1024 10 16.09344 0 0
10:52 am 10:52 Sunny 55 12.8 39 3.9 55 55 SSE 9 15 30.21 1023 10 16.09344 0 0
11:52 am 11:52 Sunny 59 15 41 5 51 51 S 7 11 30.18 1022 10 16.09344 0 0
12:52 pm 12:52 Sunny 62 16.7 41 5 46 46 SW 7 11 30.15 1021 10 16.09344 0 0
1:52 pm 13:52 Sunny 64 17.8 40 4.4 41 41 SSW 7 11 30.15 1021 10 16.09344 0 0
2:52 pm 14:52 Sunny 65 18.3 39 3.9 39 39 SW 8 13 30.12 1020 10 16.09344 0 0
3:52 pm 15:52 Sunny 64 17.8 38 3.3 38 38 SSW 5 7 30.12 1020 10 16.09344 0 0
4:52 pm 16:52 Clear 60 15.6 37 2.8 42 42 S 3 6 30.15 1021 10 16.09344 0 0
5:52 pm 17:52 Clear 55 12.8 38 3.3 53 53 SSW 3 6 30.15 1021 10 16.09344 0 0
6:52 pm 18:52 Clear 49 9.4 38 3.3 66 66 Calm 30.15 1021 10 16.09344 0 0
7:52 pm 19:52 Clear 47 8.3 38 3.3 71 71 Calm 30.15 1021 10 16.09344 0 0
8:52 pm 20:52 Clear 45 7.2 39 3.9 80 80 Calm 30.15 1021 10 16.09344 0 0
9:52 pm 21:52 Clear 44 6.7 38 3.3 79 79 SE 3 6 30.15 1021 10 16.09344 0 0
10:52 pm 22:52 Clear 44 6.7 39 3.9 83 83 SSE 3 6 30.15 1021 10 16.09344 0 0
11:52 pm 23:52 Clear 43 6.1 38 3.3 82 82 SSE 3 6 30.15 1021 10 16.09344 0 0

Powered by AerisWeather